DW4669 Weather Reports


Display with metric or nautical units.
time (UTC)temp
F
wind
direction
speed
MPH
gust
MPH
rain 1hr
in
rain 24hr
in
rain mn
in
humidity
%
barometer
mb
20260901001018 69 0 0.0 0.0 0.00 0.01 0.01 95 1018.1
20260901000517 69 0 0.0 0.0 0.00 0.01 0.01 95 1018.1
20260901000037 69 0 0.0 0.0 0.00 0.01 0.01 94 1018.2
20260831235516 69 0 0.0 0.0 0.00 0.02 0.01 94 1018.2
20260831235016 69 0 0.0 0.0 0.00 0.02 0.01 94 1018.2
20260831234543 69 0 0.0 0.0 0.00 0.02 0.01 94 1018.2
20260831234018 69 0 0.0 0.0 0.00 0.02 0.01 94 1018.2
20260831233518 69 0 0.0 0.0 0.00 0.02 0.01 94 1018.2
20260831233036 69 0 0.0 0.0 0.00 0.02 0.01 94 1018.1
20260831232517 70 0 0.0 0.0 0.00 0.02 0.01 93 1018.2
20260831232017 70 0 0.0 0.0 0.00 0.02 0.01 93 1018.2
20260831231536 70 0 0.0 0.0 0.00 0.02 0.01 93 1018.3
20260831231018 70 0 0.0 0.0 0.00 0.02 0.01 93 1018.2
20260831230522 70 0 0.0 0.0 0.00 0.02 0.01 93 1018.3
20260831230039 70 0 0.0 0.0 0.00 0.02 0.01 92 1018.3
20260831225521 70 0 0.0 0.0 0.00 0.02 0.01 92 1018.4
20260831225015 70 0 0.0 0.0 0.00 0.02 0.01 92 1018.4
20260831224536 70 0 0.0 0.0 0.00 0.02 0.01 91 1018.4
20260831224018 71 0 0.0 0.0 0.00 0.02 0.01 91 1018.5
20260831223518 71 0 0.0 0.0 0.00 0.02 0.01 90 1018.4
20260831223038 71 0 0.0 0.0 0.00 0.02 0.01 89 1018.5
20260831222516 71 0 0.0 0.0 0.00 0.02 0.01 89 1018.6
20260831222016 71 0 0.0 0.0 0.00 0.02 0.01 88 1018.6
20260831221536 72 0 0.0 1.0 0.00 0.02 0.01 88 1018.5
20260831221015 72 0 0.0 1.0 0.00 0.02 0.01 87 1018.7
20260831220519 72 0 0.0 0.0 0.00 0.02 0.01 87 1018.5
20260831220034 72 0 0.0 1.0 0.00 0.02 0.01 87 1018.6
20260831215518 72 0 0.0 1.0 0.00 0.02 0.01 87 1018.6
20260831215016 72 0 0.0 0.0 0.00 0.02 0.01 88 1018.6
20260831214539 72 0 0.0 0.0 0.00 0.02 0.01 88 1018.6
20260831214019 71 0 0.0 2.0 0.00 0.02 0.01 88 1018.5
20260831213517 71 0 0.0 2.0 0.00 0.02 0.01 88 1018.6
20260831213035 71 250 0.0 1.0 0.00 0.02 0.01 88 1018.5
20260831212518 71 0 0.0 1.0 0.00 0.02 0.01 88 1018.6
20260831212019 71 0 0.0 1.0 0.00 0.02 0.01 87 1018.6
20260831211535 71 0 0.0 1.0 0.00 0.02 0.01 87 1018.6
20260831211016 71 0 0.0 0.0 0.00 0.02 0.01 88 1018.7
20260831210517 71 0 0.0 0.0 0.00 0.02 0.01 88 1018.7
20260831210032 71 0 0.0 1.0 0.00 0.02 0.01 87 1018.7
20260831205519 71 0 0.0 2.0 0.00 0.02 0.01 87 1018.8
20260831205019 72 0 0.0 2.0 0.00 0.02 0.01 87 1018.8
20260831204540 72 0 0.0 2.0 0.00 0.02 0.01 86 1018.8
20260831204020 72 0 0.0 4.0 0.00 0.02 0.01 86 1018.9
20260831203519 72 0 0.0 4.0 0.00 0.02 0.01 86 1018.8
20260831203046 72 344 0.0 4.0 0.00 0.02 0.01 86 1018.9
20260831202517 73 0 0.0 4.0 0.00 0.02 0.01 85 1018.9
20260831202019 73 0 0.0 3.0 0.00 0.02 0.01 85 1018.9
20260831201535 73 172 0.0 2.0 0.00 0.02 0.01 84 1018.8
20260831201019 73 0 0.0 3.0 0.00 0.02 0.01 83 1018.7
20260831200515 74 0 0.0 3.0 0.00 0.02 0.01 82 1018.6
20260831200107 74 0 0.0 3.0 0.00 0.02 0.01 81 1018.6
20260831195519 74 0 0.0 2.0 0.00 0.02 0.01 83 1018.7
20260831195018 74 0 0.0 1.0 0.00 0.02 0.01 81 1018.6
20260831194537 74 0 0.0 2.0 0.00 0.02 0.01 82 1018.8
20260831194018 74 0 0.0 2.0 0.00 0.02 0.01 82 1019.0
20260831193545 74 0 0.0 2.0 0.00 0.02 0.01 81 1019.1
20260831193035 74 0 0.0 0.0 0.00 0.02 0.01 83 1019.1
20260831192519 74 0 0.0 0.0 0.00 0.02 0.01 83 1019.2
20260831192019 74 0 0.0 0.0 0.00 0.02 0.01 85 1019.3
20260831191536 74 0 0.0 0.0 0.00 0.02 0.01 83 1019.3
20260831191020 73 0 0.0 0.0 0.00 0.02 0.01 80 1019.4
20260831190519 73 0 0.0 0.0 0.00 0.02 0.01 86 1019.4
20260831190040 73 0 0.0 0.0 0.00 0.02 0.01 84 1019.5
20260831185516 74 0 0.0 0.0 0.00 0.02 0.01 85 1019.6
20260831185021 74 0 0.0 0.0 0.00 0.02 0.01 84 1019.5
20260831184536 74 0 0.0 0.0 0.00 0.02 0.01 83 1019.6
20260831184016 74 0 0.0 0.0 0.00 0.02 0.01 84 1019.6
20260831183517 74 0 0.0 0.0 0.00 0.02 0.01 82 1019.6
20260831183039 75 0 0.0 0.0 0.00 0.02 0.01 83 1019.7
20260831182517 75 0 0.0 0.0 0.00 0.02 0.01 81 1019.7
20260831182017 75 0 0.0 0.0 0.00 0.02 0.01 81 1019.7
20260831181545 75 0 0.0 0.0 0.00 0.02 0.01 81 1019.7
20260831181017 75 0 0.0 0.0 0.00 0.02 0.01 80 1019.8
20260831180516 75 0 0.0 3.0 0.00 0.02 0.01 80 1019.8
20260831180033 75 0 0.0 3.0 0.00 0.02 0.01 80 1019.8
20260831175517 75 234 0.0 2.0 0.00 0.02 0.01 78 1019.9
20260831175016 76 0 0.0 0.0 0.00 0.02 0.01 78 1019.8
20260831174545 76 0 0.0 2.0 0.00 0.02 0.01 77 1019.9
20260831174019 76 0 0.0 2.0 0.00 0.02 0.01 76 1019.8
20260831173518 76 0 0.0 2.0 0.00 0.02 0.01 77 1019.9
20260831173034 76 0 0.0 1.0 0.00 0.02 0.01 74 1020.0
20260831172517 76 0 0.0 3.0 0.00 0.02 0.01 74 1020.1
20260831172019 76 0 0.0 3.0 0.00 0.02 0.01 74 1020.2
20260831171534 77 0 0.0 3.0 0.00 0.02 0.01 74 1020.1
20260831171017 77 0 0.0 3.0 0.00 0.02 0.01 73 1020.1
20260831170518 76 192 0.0 3.0 0.00 0.02 0.01 75 1020.1
20260831170040 76 0 0.0 1.0 0.00 0.02 0.01 74 1020.0
20260831165519 76 0 0.0 1.0 0.00 0.02 0.01 74 1020.1
20260831165016 76 0 0.0 3.0 0.00 0.02 0.01 76 1020.1
20260831164535 76 238 0.0 3.0 0.00 0.02 0.01 73 1020.2
20260831164017 76 238 0.0 3.0 0.00 0.02 0.01 74 1020.2
20260831163519 76 0 0.0 3.0 0.00 0.02 0.01 74 1020.2
20260831163035 76 0 0.0 2.0 0.00 0.02 0.01 73 1020.1
20260831162523 76 0 0.0 2.0 0.00 0.02 0.01 74 1020.2
20260831162018 76 0 0.0 2.0 0.00 0.02 0.01 75 1020.0
20260831161536 76 0 0.0 1.0 0.00 0.02 0.01 75 1020.2
20260831161018 75 0 0.0 1.0 0.00 0.02 0.01 76 1020.3
20260831160519 75 0 0.0 1.0 0.00 0.02 0.01 78 1020.3
20260831160037 75 0 0.0 0.0 0.00 0.02 0.01 80 1020.5
20260831155516 75 0 0.0 2.0 0.00 0.02 0.01 74 1020.6
20260831155018 75 0 0.0 2.0 0.00 0.02 0.01 76 1020.5
20260831154609 75 0 0.0 2.0 0.00 0.02 0.01 75 1020.5
20260831154017 75 0 0.0 1.0 0.01 0.02 0.01 78 1020.6
20260831153516 74 0 0.0 3.0 0.01 0.02 0.01 77 1020.6
20260831153037 74 0 0.0 3.0 0.01 0.02 0.01 79 1020.7
20260831152517 74 232 0.0 2.0 0.01 0.02 0.01 77 1020.7
20260831152017 74 0 0.0 4.0 0.01 0.02 0.01 78 1020.6
20260831151534 74 0 0.0 4.0 0.01 0.02 0.01 77 1020.6
20260831151020 74 213 0.0 4.0 0.01 0.02 0.01 77 1020.6
20260831150521 74 0 0.0 6.0 0.01 0.02 0.01 76 1020.6
20260831150035 74 254 0.0 6.0 0.01 0.02 0.01 77 1020.6
20260831145519 75 0 1.0 6.0 0.01 0.02 0.01 76 1020.6
20260831145018 74 0 0.0 3.0 0.01 0.02 0.01 77 1020.6
20260831144535 74 0 0.0 4.0 0.01 0.02 0.01 81 1020.7
20260831144016 74 0 1.0 4.0 0.00 0.01 0.00 78 1020.6
20260831143518 73 0 0.0 3.0 0.00 0.01 0.00 80 1020.6
20260831143036 73 0 0.0 4.0 0.00 0.01 0.00 82 1020.6
20260831142516 72 0 0.0 4.0 0.00 0.01 0.00 83 1020.6
20260831142019 72 0 0.0 4.0 0.00 0.01 0.00 81 1020.6
20260831141540 72 0 0.0 2.0 0.00 0.01 0.00 85 1020.6
20260831141019 72 0 0.0 2.0 0.00 0.01 0.00 82 1020.7
20260831140518 72 0 0.0 3.0 0.00 0.01 0.00 83 1020.7
20260831140037 72 0 0.0 3.0 0.00 0.01 0.00 84 1020.7
20260831135516 71 0 0.0 3.0 0.00 0.01 0.00 84 1020.6
20260831135017 71 257 0.0 3.0 0.00 0.01 0.00 86 1020.5
20260831134539 71 0 0.0 3.0 0.00 0.01 0.00 87 1020.4
20260831134015 70 0 0.0 1.0 0.00 0.01 0.00 88 1020.4
20260831133517 70 0 0.0 1.0 0.00 0.01 0.00 88 1020.4
20260831133036 69 0 0.0 1.0 0.00 0.01 0.00 91 1020.5
20260831132520 68 0 0.0 0.0 0.00 0.01 0.00 92 1020.5
20260831132017 68 0 0.0 1.0 0.00 0.01 0.00 92 1020.6
20260831131539 67 0 0.0 3.0 0.00 0.01 0.00 93 1020.5
20260831131019 67 0 0.0 3.0 0.00 0.01 0.00 94 1020.4
20260831130517 67 0 0.0 3.0 0.00 0.01 0.00 96 1020.5
20260831130041 66 0 0.0 1.0 0.00 0.01 0.00 97 1020.6
20260831125516 66 0 0.0 0.0 0.00 0.01 0.00 97 1020.6
20260831125017 66 0 0.0 0.0 0.00 0.01 0.00 97 1020.7
20260831124537 65 0 0.0 1.0 0.00 0.01 0.00 97 1020.5
20260831124016 65 0 0.0 3.0 0.00 0.01 0.00 97 1020.4
20260831123520 65 0 0.0 4.0 0.00 0.01 0.00 98 1020.4
20260831123037 65 0 1.0 4.0 0.00 0.01 0.00 98 1020.3
20260831122525 64 0 0.0 1.0 0.00 0.01 0.00 98 1020.4
20260831122017 64 0 0.0 0.0 0.00 0.01 0.00 98 1020.4
20260831121537 64 0 0.0 0.0 0.00 0.01 0.00 98 1020.4
20260831121016 63 0 0.0 0.0 0.00 0.01 0.00 98 1020.4
20260831120518 63 0 0.0 0.0 0.00 0.01 0.00 98 1020.5
20260831120035 63 0 0.0 1.0 0.00 0.01 0.00 98 1020.6
20260831115515 63 0 0.0 1.0 0.00 0.01 0.00 98 1020.5
20260831115019 63 0 0.0 1.0 0.00 0.01 0.00 98 1020.3
20260831114535 62 0 0.0 0.0 0.00 0.01 0.00 98 1020.3
20260831114017 62 0 0.0 0.0 0.00 0.01 0.00 98 1020.1
20260831113521 62 0 0.0 0.0 0.00 0.01 0.00 97 1020.1
20260831113044 62 0 0.0 0.0 0.00 0.01 0.00 97 1020.2
20260831112517 62 0 0.0 0.0 0.00 0.01 0.00 98 1020.1
20260831112019 62 0 0.0 0.0 0.00 0.01 0.00 98 1020.2
20260831111537 62 0 0.0 0.0 0.00 0.01 0.00 98 1020.2
20260831111016 61 0 0.0 0.0 0.00 0.01 0.00 98 1019.9
20260831110521 61 0 0.0 0.0 0.00 0.01 0.00 98 1019.9
20260831110035 61 0 0.0 0.0 0.00 0.01 0.00 97 1020.0
20260831105520 61 0 0.0 0.0 0.00 0.01 0.00 97 1020.0
20260831105016 61 0 0.0 0.0 0.00 0.01 0.00 97 1019.9
20260831104537 61 0 0.0 0.0 0.00 0.01 0.00 97 1019.8
20260831104018 61 0 0.0 0.0 0.00 0.01 0.00 97 1019.7
20260831103518 61 0 0.0 0.0 0.00 0.01 0.00 97 1019.7
20260831103034 61 0 0.0 0.0 0.00 0.01 0.00 97 1019.6
20260831102518 61 0 0.0 0.0 0.00 0.01 0.00 97 1019.6
20260831102018 61 0 0.0 0.0 0.00 0.01 0.00 97 1019.6
20260831101535 61 0 0.0 0.0 0.00 0.01 0.00 97 1019.6
20260831101017 62 0 0.0 0.0 0.00 0.01 0.00 97 1019.6
20260831100515 62 0 0.0 0.0 0.00 0.01 0.00 97 1019.6
20260831100037 62 0 0.0 0.0 0.00 0.01 0.00 97 1019.6
20260831095518 62 0 0.0 0.0 0.00 0.01 0.00 97 1019.6
20260831095015 62 0 0.0 0.0 0.00 0.01 0.00 97 1019.6
20260831094534 62 0 0.0 0.0 0.00 0.01 0.00 97 1019.4
20260831094016 62 0 0.0 0.0 0.00 0.01 0.00 97 1019.4
20260831093519 62 0 0.0 0.0 0.00 0.01 0.00 97 1019.2
20260831093036 62 0 0.0 0.0 0.00 0.01 0.00 97 1019.3
20260831092521 62 0 0.0 0.0 0.00 0.01 0.00 97 1019.3
20260831092017 62 0 0.0 0.0 0.00 0.01 0.00 97 1019.3
20260831091534 62 0 0.0 0.0 0.00 0.01 0.00 97 1019.2
20260831091019 62 0 0.0 0.0 0.00 0.01 0.00 97 1019.4
20260831090518 61 0 0.0 0.0 0.00 0.01 0.00 97 1019.4
20260831090034 61 0 0.0 0.0 0.00 0.01 0.00 97 1019.5
20260831085519 61 0 0.0 0.0 0.00 0.01 0.00 97 1019.5
20260831085019 61 0 0.0 0.0 0.00 0.01 0.00 96 1019.5
20260831084533 61 0 0.0 0.0 0.00 0.01 0.00 96 1019.5
20260831084015 61 0 0.0 0.0 0.00 0.01 0.00 96 1019.5
20260831083515 61 0 0.0 0.0 0.00 0.01 0.00 96 1019.4
20260831083038 61 0 0.0 0.0 0.00 0.01 0.00 96 1019.4
20260831082518 61 0 0.0 0.0 0.00 0.01 0.00 96 1019.2
20260831082016 61 0 0.0 0.0 0.00 0.01 0.00 96 1019.2
20260831081538 61 0 0.0 0.0 0.00 0.01 0.00 96 1019.3
20260831081018 61 0 0.0 0.0 0.00 0.01 0.00 96 1019.2
20260831080517 61 0 0.0 0.0 0.00 0.01 0.00 96 1019.3
20260831080038 62 0 0.0 0.0 0.00 0.01 0.00 96 1019.2
20260831075517 62 0 0.0 0.0 0.00 0.01 0.00 96 1019.2
20260831075017 62 0 0.0 0.0 0.00 0.01 0.00 96 1019.2
20260831074534 62 0 0.0 0.0 0.00 0.01 0.00 96 1019.2
20260831074019 62 0 0.0 0.0 0.00 0.01 0.00 96 1019.2
20260831073518 62 0 0.0 0.0 0.00 0.01 0.00 96 1019.0
20260831073037 62 0 0.0 0.0 0.00 0.01 0.00 96 1019.1
20260831072516 62 0 0.0 0.0 0.00 0.01 0.00 96 1019.0
20260831072017 62 0 0.0 0.0 0.00 0.01 0.00 96 1019.0
20260831071536 62 0 0.0 0.0 0.00 0.01 0.00 96 1019.0
20260831071018 62 0 0.0 0.0 0.00 0.01 0.00 95 1018.9
20260831070517 62 0 0.0 0.0 0.00 0.01 0.00 95 1019.0
20260831070049 62 0 0.0 0.0 0.00 0.01 0.00 95 1019.1
20260831065518 63 0 0.0 0.0 0.00 0.01 0.00 95 1019.2
20260831065017 63 0 0.0 0.0 0.00 0.01 0.00 96 1019.2
20260831064536 63 0 0.0 0.0 0.00 0.01 0.00 95 1019.3
20260831064018 63 0 0.0 0.0 0.00 0.01 0.00 95 1019.2
20260831063519 63 0 0.0 0.0 0.00 0.01 0.00 95 1019.2
20260831063037 63 0 0.0 0.0 0.00 0.01 0.00 95 1019.2
20260831062515 64 0 0.0 0.0 0.00 0.01 0.00 96 1019.1
20260831062019 64 0 0.0 0.0 0.00 0.01 0.00 95 1019.0
20260831061536 64 0 0.0 0.0 0.00 0.01 0.00 95 1019.0
20260831061018 64 0 0.0 0.0 0.00 0.01 0.00 95 1019.0
20260831060518 64 0 0.0 0.0 0.00 0.01 0.00 95 1019.1
20260831060041 64 0 0.0 0.0 0.00 0.01 0.00 95 1019.0
20260831055519 65 0 0.0 0.0 0.00 0.01 0.00 95 1019.0
20260831055021 65 0 0.0 0.0 0.00 0.01 0.00 95 1019.1
20260831054534 65 0 0.0 0.0 0.00 0.01 0.00 95 1019.2
20260831054018 65 0 0.0 2.0 0.00 0.01 0.00 95 1019.1
20260831053517 65 0 0.0 2.0 0.00 0.01 0.00 95 1019.1
20260831053039 65 0 0.0 1.0 0.00 0.01 0.00 95 1019.0
20260831052519 65 0 0.0 2.0 0.00 0.01 0.00 94 1019.1
20260831052018 65 0 0.0 2.0 0.00 0.01 0.00 94 1019.1
20260831051539 65 0 0.0 0.0 0.00 0.01 0.00 94 1019.1
20260831051017 66 0 0.0 0.0 0.00 0.01 0.00 94 1019.2
20260831050519 66 0 0.0 0.0 0.00 0.01 0.00 94 1019.1
20260831050043 66 0 0.0 0.0 0.00 0.01 0.00 94 1019.1
20260831045523 66 0 0.0 0.0 0.00 0.01 0.00 94 1019.1
20260831045017 66 0 0.0 0.0 0.00 0.01 0.00 94 1019.0
20260831044537 67 0 0.0 0.0 0.00 0.01 0.00 93 1019.1
20260831044020 67 0 0.0 0.0 0.00 0.01 0.00 93 1019.1
20260831043519 67 0 0.0 0.0 0.00 0.01 0.00 93 1019.0
20260831043043 67 0 0.0 0.0 0.00 0.01 0.00 93 1018.9
20260831042516 67 0 0.0 0.0 0.00 0.01 0.00 93 1018.9
20260831042019 68 0 0.0 0.0 0.00 0.01 0.00 93 1018.8
20260831041538 68 0 0.0 0.0 0.00 0.01 0.00 93 1018.8
20260831041018 68 0 0.0 0.0 0.00 0.01 0.00 93 1018.8
20260831040516 68 0 0.0 0.0 0.00 0.01 0.00 93 1018.9
20260831040035 68 0 0.0 0.0 0.00 0.01 0.00 93 1018.9
20260831035518 68 0 0.0 0.0 0.00 0.01 0.01 93 1019.0
20260831035019 68 0 0.0 0.0 0.00 0.01 0.01 93 1018.9
20260831034534 68 0 0.0 0.0 0.00 0.01 0.01 92 1019.0
20260831034016 69 0 0.0 0.0 0.00 0.01 0.01 92 1019.0
20260831033518 69 0 0.0 0.0 0.00 0.01 0.01 92 1019.0
20260831033056 69 0 0.0 1.0 0.00 0.01 0.01 92 1019.0
20260831032520 69 0 0.0 1.0 0.00 0.01 0.01 92 1019.1
20260831032017 69 0 0.0 1.0 0.00 0.01 0.01 93 1019.1
20260831031535 69 0 0.0 1.0 0.00 0.01 0.01 93 1019.1
20260831031020 69 0 0.0 0.0 0.00 0.01 0.01 93 1019.0
20260831030517 69 0 0.0 0.0 0.00 0.01 0.01 93 1018.9
20260831030035 70 0 0.0 0.0 0.00 0.01 0.01 93 1018.9
20260831025518 70 0 0.0 0.0 0.00 0.01 0.01 92 1018.9
20260831025015 70 0 0.0 0.0 0.00 0.01 0.01 92 1018.9
20260831024533 70 0 0.0 1.0 0.00 0.01 0.01 92 1019.0
20260831024018 70 0 0.0 1.0 0.00 0.01 0.01 92 1019.2
20260831023517 70 0 0.0 1.0 0.00 0.01 0.01 92 1019.1
20260831023037 70 0 0.0 1.0 0.00 0.01 0.01 92 1019.2
20260831022518 70 0 0.0 1.0 0.00 0.01 0.01 92 1019.2
20260831022017 70 0 0.0 1.0 0.00 0.01 0.01 92 1019.3
20260831021535 70 0 0.0 1.0 0.00 0.01 0.01 92 1019.3
20260831021019 70 0 0.0 1.0 0.00 0.01 0.01 92 1019.2
20260831020516 70 0 0.0 1.0 0.00 0.01 0.01 92 1019.2
20260831020042 70 0 0.0 1.0 0.00 0.01 0.01 92 1019.3
20260831015519 70 0 0.0 1.0 0.00 0.01 0.01 92 1019.3
20260831015017 71 0 0.0 1.0 0.00 0.01 0.01 92 1019.4
20260831014535 71 0 0.0 1.0 0.00 0.01 0.01 93 1019.3
20260831014017 71 0 0.0 2.0 0.00 0.01 0.01 93 1019.3
20260831013516 71 0 0.0 2.0 0.00 0.01 0.01 92 1019.2
20260831013041 71 0 0.0 1.0 0.00 0.01 0.01 93 1019.1
20260831012518 71 0 0.0 1.0 0.00 0.01 0.01 93 1019.1
20260831012015 71 0 0.0 1.0 0.00 0.01 0.01 94 1019.0
20260831011542 71 0 0.0 1.0 0.00 0.01 0.01 93 1018.9
20260831011018 71 0 0.0 1.0 0.00 0.01 0.01 94 1018.9
20260831010519 71 0 0.0 1.0 0.00 0.01 0.01 94 1018.9
20260831010036 71 0 0.0 1.0 0.00 0.01 0.01 94 1018.9
20260831005516 71 0 0.0 1.0 0.00 0.01 0.01 94 1018.8
20260831005016 71 0 0.0 1.0 0.00 0.01 0.01 94 1018.8
20260831004534 71 0 0.0 1.0 0.00 0.01 0.01 94 1018.8
20260831004018 71 0 0.0 1.0 0.01 0.01 0.01 94 1018.7
20260831003519 71 0 0.0 1.0 0.01 0.01 0.01 94 1018.6
20260831003038 71 0 0.0 0.0 0.01 0.01 0.01 93 1018.6
20260831002518 71 0 0.0 0.0 0.01 0.01 0.01 93 1018.5
20260831002017 71 0 0.0 0.0 0.01 0.01 0.01 93 1018.4
20260831001537 72 0 0.0 0.0 0.01 0.01 0.01 92 1018.2